Welcome to the New NWS' Forecast!
Most changes are behind the scenes, but click here for differences you might notice.
Latest weather observations around

Corsicana, Campbell Field-Corsicana Municipal Airport (KCRS)

Using English Units (Switch to International System of Units)
Date/ Time (CST) Wind (mph) Vis. (mi) Weather Sky Cond. Temp (°F) Rel. Humidity Wind Chill (°F) Heat Index (°F) Pressure Precip. (in)
Air Dwpt 6 hour Altimeter (inHg) Sea level (inHg) 1 hr 3 hr 6 hr
Max Min
Dec 09 12:53 NNW 13 10 Clear CLR 48 36     63% 43   30.31 30.31      
Dec 09 11:53 N 15 9 Partly Cloudy SCT023 SCT042 46 36     68% 40   30.33 30.33      
Dec 09 11:32 N 10 8 Mostly Cloudy BKN023 BKN060 45 35     68% 40   30.34        
Dec 09 10:53 NNW 14 8 Cloudy FEW024 OVC060 43 34     70% 36   30.35 30.35      
Dec 09 10:31 NNW 13 7 Cloudy SCT018 OVC060 42 34     73% 35   30.36        
Dec 09 09:53 NNW 15 6 Haze BKN017 OVC060 41 34     76% 33   30.36 30.37      
Dec 09 09:36 N 13 5 Haze OVC015 40 35     83% 32   30.36        
Dec 09 08:53 NW 10 4 Fog/Mist OVC014 40 36     86% 33   30.34 30.35      
Dec 09 07:53 NNW 9 4 Fog/Mist OVC013 39 36     89% 33   30.32 30.33      
Dec 09 06:53 NNW 9 5 Fog/Mist OVC011 39 36     89% 33   30.31 30.31      
Dec 09 05:53 NNW 13 6 Fog/Mist OVC012 39 35     86% 31   30.28 30.28      
Dec 09 04:53 NNW 13 8 Cloudy OVC010 39 36     89% 31   30.27 30.27      
Dec 09 04:04 NW 11 9 Cloudy OVC010 39 36     89% 32   30.28        
Dec 09 03:53 NNW 14 9 Cloudy OVC009 39 36     89% 31   30.27 30.28      
Dec 09 03:36 NW 13 9 Cloudy OVC009 39 36     89% 31   30.27        
Dec 09 02:53 NNW 11 10 Cloudy OVC012 39 36     89% 32   30.27 30.27      
Dec 09 01:53 NNW 10 9 Cloudy OVC010 39 36     89% 32   30.27 30.27      
Dec 09 01:33 NNW 10 10 Cloudy OVC011 39 36     89% 32   30.26        
Dec 09 01:00 NW 11 10 Cloudy BKN009 OVC016 39 37     93% 32   30.27        
Dec 09 00:53 NNW 8 10 Cloudy BKN011 OVC016 39 36     89% 33   30.26 30.27      
Dec 08 23:53 N 13 10 Cloudy OVC011 39 36     89% 31   30.26 30.27     0
Dec 08 22:53 NNW 10 10 Cloudy OVC012 39 36     89% 32   30.26 30.26      
Dec 08 21:53 N 14 10 Cloudy OVC010 39 36     89% 31   30.26 30.26      
Dec 08 20:53 NNW 13 10 Cloudy OVC011 40 37     89% 32   30.25 30.25   0  
Dec 08 20:25 NNW 15 10 Cloudy OVC011 40 37     89% 32   30.25        
Dec 08 19:53 NNW 14 4 Fog/Mist BKN007 OVC014 40 38     93% 32   30.24 30.24 0    
Dec 08 19:04 NNW 15 3 Light Rain and Fog/Mist BKN007 OVC013 40 39     97% 32   30.22   0    
Dec 08 18:53 NNW 13 2.5 Light Rain and Fog/Mist BKN006 BKN013 OVC021 40 39     97% 32   30.22 30.22 0    
Dec 08 18:44 NNW 10 3 Light Rain and Fog/Mist FEW005 BKN011 OVC023 41 39     93% 35   30.22   0    
Dec 08 17:53 NNW 11 10 Cloudy OVC012 42 39     89% 36   30.2 30.21     0
Dec 08 16:53 N 10 10 Cloudy OVC010 42 40     92% 36   30.18 30.19 0    
Dec 08 16:50 NNW 11 10 Light Rain OVC010 43 39     87% 37   30.18   0    
Dec 08 16:38 NNW 14 5 Light Rain and Fog/Mist BKN008 BKN012 OVC019 42 40     92% 35   30.18   0    
Dec 08 16:25 N 14 10 Light Rain SCT010 BKN014 OVC019 42 40     92% 35   30.17   0    
Dec 08 15:53 N 11 10 Light Rain FEW009 BKN021 OVC026 42 40     92% 36   30.16 30.16 0    
Dec 08 15:00 N 15 8 Light Rain FEW008 OVC016 43 41     93% 36   30.15   0    
Dec 08 14:53 N 11 8 Light Rain SCT010 OVC018 43 41     93% 37   30.15 30.15 0 0  
Dec 08 14:30 N 14 7 Cloudy FEW008 BKN011 OVC019 43 41     93% 36   30.15   0    
Dec 08 13:53 N 10 4 Fog/Mist BKN008 BKN012 OVC055 43 42     97% 37   30.15 30.16 0    
Dec 08 13:46 N 11 4 Fog/Mist BKN008 BKN014 OVC055 43 41     93% 37   30.15   0    
Dec 08 13:27 N 13 4 Light Rain and Fog/Mist SCT008 BKN024 OVC055 43 41     93% 36   30.15   0    
Dec 08 13:16 N 14 3 Light Rain and Fog/Mist SCT008 BKN014 OVC021 43 41     93% 36   30.16   0    
Dec 08 13:06 N 14 2 Light Rain and Fog/Mist BKN008 OVC012 43 41     93% 36   30.16   0    
Dec 08 12:53 N 11 1.75 Light Rain and Fog/Mist BKN009 OVC016 43 41     93% 37   30.17 30.17 0    
Dec 08 12:42 N 13 1.75 Light Rain and Fog/Mist BKN007 OVC016 43 41     93% 36   30.17   0    
Dec 08 12:34 N 13 2 Light Rain and Fog/Mist BKN007 BKN010 OVC016 42 41     96% 35   30.17   0    
Dec 08 12:09 N 13 1.75 Light Rain and Fog/Mist OVC008 42 41     96% 35   30.17   0    
Dec 08 12:01 N 14 4 Light Rain and Fog/Mist BKN008 OVC015 42 41     96% 35   30.17   0    
Dec 08 11:53 N 9 2.5 Light Rain and Fog/Mist SCT006 BKN010 OVC020 42 41     96% 37   30.17 30.18 0   0
Dec 08 11:42 N 15 4 Clear   42 40     92% 35   30.18   0    
Dec 08 11:01 N 16 2 Clear   42 41     96% 34   30.18   0    
Dec 08 10:53 N 13 1.75 Clear   42 41     96% 35   30.19 30.19 0    
Dec 08 09:53 N 11 1.75 Light Rain and Fog/Mist BKN007 OVC012 42 40     92% 36   30.19 30.19 0    
Dec 08 08:53 N 13 2 Light Rain and Fog/Mist OVC008 41 40     96% 34   30.17 30.17 0 0  
Dec 08 08:49 N 14 1.75 Light Rain and Fog/Mist BKN006 OVC010 41 39     93% 33   30.17   0    
Dec 08 08:29 N 17 2 Light Rain and Fog/Mist OVC006 41 40     96% 32   30.17   0    
Dec 08 07:53 N 13 5 Fog/Mist BKN009 OVC012 41 40     96% 34   30.15 30.15      
Dec 08 07:43 N 11 7 Cloudy OVC011 41 39     93% 34   30.14        
Dec 08 06:53 N 11 9 Cloudy OVC007 42 40     92% 36   30.14 30.14      
Dec 08 04:53 N 14 10 Cloudy OVC010 42 40     92% 35   30.16 30.16      
Dec 08 03:53 N 9 10 Cloudy OVC008 42 41     96% 37   30.13 30.13 0    
Dec 08 01:53 NNE 13 5 Rain and Fog/Mist BKN007 OVC012 43 41     93% 36   30.14 30.14 0    
Dec 08 01:26 N 13 4 Rain and Fog/Mist BKN007 BKN015 OVC075 43 41     93% 36   30.18   0    
Dec 08 01:18 N 15 4 Rain and Fog/Mist SCT006 BKN042 OVC075 43 41     93% 36   30.19   0    
Dec 08 01:04 N 13 4 Rain and Fog/Mist BKN006 BKN048 OVC065 43 42     97% 36   30.19   0    
Dec 08 00:53 N 15 3 Heavy Rain and Fog/Mist SCT005 BKN048 OVC070 43 42     97% 36   30.19 30.19 0    
Dec 08 00:35 N 11 4 Heavy Rain and Fog/Mist SCT007 BKN050 OVC080 43 42     97% 37   30.2   0    
Dec 07 23:53 N 11 9 Light Rain OVC008 44 42     93% 38   30.2 30.21 0   0
Dec 07 22:53 NNE 10 10 Light Rain OVC008 44 43     96% 39   30.2 30.2 0    
Dec 07 21:53 NNE 16 10 Light Rain OVC008 44 43     96% 37   30.19 30.19 0    
Dec 07 20:53 NNE 18 10 Light Rain OVC008 45 43     93% 37   30.21 30.21 0 0  
Dec 07 19:53 NNE 14 4 Rain and Fog/Mist OVC007 45 44     97% 39   30.24 30.24 0    
Dec 07 16:53 NNE 11 10 Light Rain BKN007 BKN028 OVC095 46 44     93% 41   30.19 30.19 0    
Dec 07 16:49 NNE 15 9 Light Rain SCT009 BKN028 OVC095 46 45     93% 40   30.18   0    
Dec 07 15:53 N 11 4 Rain and Fog/Mist OVC007 46 45     96% 41   30.23 30.23 0    
Dec 07 13:53 NNE 10 4 Rain and Fog/Mist OVC006 47 45     93% 42   30.22 30.22      
Dec 07 13:42 N 9 3 Rain and Fog/Mist   47 46     97% 43   30.24        
Dec 07 13:33 N 9 2.5 Rain and Fog/Mist   47 45     93% 43   30.24        
Dec 07 13:00 NNE 11 3 Rain and Fog/Mist OVC005 47 45     93% 42   30.24   0    
Dec 07 12:53 NNE 9 2.5 Rain and Fog/Mist BKN005 OVC050 46 45     96% 41   30.25 30.24 0    
Dec 07 12:46 N 9 2 Rain and Fog/Mist BKN005 OVC050 46 45     96% 41   30.25   0    
Dec 07 12:16 NE 8 1.75 Heavy Rain and Fog/Mist OVC005 46 45     96% 42   30.28   0    
Dec 07 11:53 NNE 7 3 Light Rain and Fog/Mist OVC005 47 45     93% 44   30.29 30.29 0   0
Dec 07 11:27 NNE 8 8 Light Rain OVC005 47 45     93% 43   30.3   0    
Dec 07 10:53 NNE 9 3 Light Rain and Fog/Mist OVC004 46 45     96% 41   30.3 30.3 0    
Dec 07 10:20 NNE 9 2 Light Rain and Fog/Mist OVC004 46 45     96% 41   30.32   0    
Dec 07 09:53 NNE 10 1.5 Light Rain and Fog/Mist OVC004 46 44     93% 41   30.33 30.33 0    
Dec 07 09:49 NNE 10 1.5 Light Rain and Fog/Mist OVC004 46 45     93% 41   30.32   0    
Dec 07 09:33 NNE 11 2 Light Rain and Fog/Mist OVC004 45 44     97% 39   30.33   0    
Dec 07 09:11 N 13 1.75 Light Rain and Fog/Mist OVC004 45 44     97% 39   30.32   0    
Dec 07 09:01 N 10 2 Light Rain and Fog/Mist OVC004 46 45     96% 41   30.32   0    
Dec 07 08:53 N 9 2 Fog/Mist OVC005 46 45     96% 41   30.32 30.32 0 0  
Dec 07 08:40 N 9 2.5 Light Rain and Fog/Mist OVC005 46 45     96% 41   30.32   0    
Dec 07 08:29 N 11 3 Fog/Mist OVC005 46 45     96% 41   30.31   0    
Dec 07 08:13 NNE 10 3 Light Rain and Fog/Mist OVC004 46 45     96% 41   30.3   0    
Dec 07 08:09 NNE 11 2.5 Light Rain and Fog/Mist OVC005 46 45     96% 41   30.3   0    
Dec 07 07:53 N 9 5 Light Rain and Fog/Mist OVC005 46 45     96% 41   30.31 30.31 0    
Dec 07 07:51 N 9 5 Light Rain and Fog/Mist OVC005 46 45     93% 42   30.31   0    
Dec 07 07:40 NNE 8 4 Light Rain and Fog/Mist OVC004 46 45     96% 42   30.3   0    
Dec 07 07:32 NNE 10 2.5 Rain and Fog/Mist OVC004 46 45     96% 41   30.3   0    
Dec 07 07:22 N 8 3 Light Rain and Fog/Mist OVC004 46 45     96% 42   30.3   0    
Dec 07 06:53 NNE 9 2.5 Light Rain and Fog/Mist OVC004 46 45     96% 41   30.28 30.28 0    
Dec 07 06:37 NNE 9 4 Light Rain and Fog/Mist OVC004 46 45     96% 41   30.28   0    
Dec 07 05:53 NNE 9 4 Light Rain and Fog/Mist OVC005 46 45     96% 41   30.27 30.27 0   0
Dec 07 05:31 NNE 10 3 Light Rain and Fog/Mist OVC005 46 45     96% 41   30.26   0    
Dec 07 05:17 NNE 10 4 Light Rain and Fog/Mist OVC004 46 45     96% 41   30.26   0    
Dec 07 04:53 N 9 2.5 Rain and Fog/Mist OVC004 47 46     97% 43   30.26 30.26 0    
Dec 07 04:51 N 9 2.5 Rain and Fog/Mist OVC004 46 46     100% 42   30.26   0    
Dec 07 03:53 N 9 3 Light Rain and Fog/Mist OVC004 47 46     97% 43   30.26 30.26 0    
Dec 07 01:53 NNE 8 5 Light Rain and Fog/Mist OVC004 48 47     96% 44   30.25 30.25 0    
Dec 07 01:31 N 11 4 Light Rain and Fog/Mist OVC003 48 47     96% 43   30.25   0    
Dec 07 01:07 N 7 2 Light Rain and Fog/Mist OVC003 48 47     96% 45   30.26   0    
Dec 07 00:53 N 7 3 Light Rain and Fog/Mist OVC003 48 47     96% 45   30.26 30.26 0    
Dec 07 00:34 N 7 3 Light Rain and Fog/Mist OVC003 48 48     100% 45   30.26   0    
Dec 07 00:20 N 8 2 Light Rain and Fog/Mist OVC003 48 48     100% 44   30.26   0    
Dec 06 23:53 NNE 7 3 Light Rain and Fog/Mist OVC003 48 48     100% 45   30.26 30.26 0   0
Dec 06 23:43 NNE 6 3 Light Rain and Fog/Mist OVC003 49 48     97% 46   30.27   0    
Dec 06 23:34 N 7 2.5 Light Rain and Fog/Mist OVC003 49 48     97% 46   30.27   0    
Dec 06 22:53 N 7 3 Light Rain and Fog/Mist OVC003 50 50     100%     30.27 30.27 0    
Dec 06 22:40 NNE 7 3 Light Rain and Fog/Mist OVC003 51 50     96%     30.27   0    
Dec 06 22:04 ENE 5 2.5 Light Rain and Fog/Mist BKN003 BKN022 OVC030 52 51     97%     30.26   0    
Dec 06 21:53 ENE 8 3 Light Rain and Fog/Mist SCT003 BKN017 OVC031 52 51     97%     30.26 30.25 0    
Dec 06 21:45 ENE 7 2.5 Light Rain and Fog/Mist SCT003 BKN017 OVC031 52 51     97%     30.26   0    
Dec 06 21:06 NE 9 3 Light Rain and Fog/Mist BKN003 OVC018 53 52     96%     30.25   0    
Dec 06 20:53 NNE 8 2.5 Light Rain and Fog/Mist OVC003 53 52     96%     30.25 30.24 0 0  
Dec 06 20:45 N 8 2.5 Light Rain and Fog/Mist OVC003 53 52     96%     30.25   0    
Dec 06 20:35 NNE 7 3 Light Rain and Fog/Mist OVC003 53 52     96%     30.25   0    
Dec 06 19:53 NNE 7 2.5 Light Rain and Fog/Mist OVC003 53 52     96%     30.24 30.24 0    
Dec 06 19:35 N 7 2 Light Rain and Fog/Mist OVC004 53 53     100%     30.24   0    
Dec 06 19:16 N 7 3 Light Rain and Fog/Mist OVC004 53 53     100%     30.24   0    
Dec 06 18:53 NNE 6 2.5 Light Rain and Fog/Mist OVC003 53 53     100%     30.24 30.23 0    
Dec 06 18:34 N 6 2 Light Rain and Fog/Mist OVC003 53 53     100%     30.24   0    
Dec 06 18:23 N 6 3 Light Rain and Fog/Mist OVC003 54 53     97%     30.23   0    
Dec 06 18:08 N 6 2.5 Light Rain and Fog/Mist BKN003 OVC011 54 53     97%     30.23   0    
Dec 06 17:53 N 7 1.75 Rain and Fog/Mist BKN003 OVC009 54 54     100%     30.22 30.22 0   0
Dec 06 17:44 N 6 2 Light Rain and Fog/Mist BKN003 OVC006 54 54     100%     30.23   0    
Dec 06 17:33 N 7 1.5 Rain and Fog/Mist OVC006 54 54     100%     30.23   0    
Dec 06 17:15 NNW 7 2.5 Light Rain and Fog/Mist OVC005 55 54     96%     30.22   0    
Dec 06 16:53 NNW 5 1.25 Light Rain and Fog/Mist OVC008 55 54     96%     30.22 30.21 0    
Dec 06 16:33 Calm 1.75 Rain and Fog/Mist OVC012 55 54     96%     30.21   0    
Dec 06 16:26 Calm 3 Light Rain and Fog/Mist OVC012 56 54     93%     30.21   0    
Dec 06 16:17 Calm 1.75 Light Rain and Fog/Mist OVC013 56 54     93%     30.2   0    
Dec 06 16:09 S 6 2 Light Rain and Fog/Mist OVC013 56 53     90%     30.2   0    
Dec 06 15:53 S 5 7 Light Rain OVC014 56 53     90%     30.2 30.19 0    
Dec 06 14:53 SSE 7 10 Cloudy OVC014 57 52     83%     30.19 30.19      
Dec 06 14:24 SSE 9 10 Cloudy BKN014 OVC021 57 51     81%     30.19        
Dec 06 13:53 S 11 10 Cloudy BKN015 OVC021 56 51     84%     30.2 30.2      
Dec 06 13:16 SSE 11 10 Cloudy FEW012 OVC026 55 50     83%     30.21        
Dec 06 12:53 S 13 9 Cloudy BKN012 BKN020 OVC028 54 50     86%     30.22 30.22      
Dec 06 12:12 SSE 8 6 Fog/Mist OVC013 53 49     86%     30.25        
Dec 06 11:53 SSE 11 7 Cloudy BKN015 OVC024 53 49     86%     30.26 30.26      
Dec 06 11:44 SSE 11 9 Cloudy BKN015 OVC024 53 49     86%     30.26        
Dec 06 11:19 S 9 7 Cloudy BKN013 OVC020 52 48     86%     30.27        
Dec 06 10:53 SSE 11 6 Haze BKN015 OVC022 52 47     83%     30.27 30.27      
Dec 06 09:53 SSE 8 10 Cloudy BKN018 OVC025 53 43     69%     30.27 30.27      
Dec 06 08:53 SSE 10 10 Cloudy OVC023 51 41     68%     30.26 30.26      
Dec 06 07:53 SSE 8 10 Cloudy OVC024 51 40     65%     30.25 30.25      
Dec 06 07:06 SE 8 10 Cloudy BKN029 BKN036 OVC050 50 38     63%     30.24        
Dec 06 06:53 SE 10 10 Cloudy SCT031 BKN039 OVC055 50 38     63%     30.24 30.24      
Dec 06 06:44 SSE 8 10 Cloudy SCT029 OVC050 50 38     63%     30.24        
Dec 06 05:53 SE 9 10 Cloudy OVC027 50 37     61%     30.23 30.23      
Dec 06 05:38 SE 10 10 Cloudy BKN029 OVC036 49 36     61% 45   30.23        
Dec 06 04:53 SE 8 10 Cloudy SCT033 OVC046 49 35     59% 45   30.23 30.23      
Dec 06 03:53 SSE 10 10 Cloudy OVC060 49 34     56% 45   30.24 30.24      
Dec 06 02:53 S 8 10 Cloudy OVC065 49 36     61% 45   30.26 30.25      
Dec 06 01:53 SSE 9 10 Cloudy OVC065 48 35     61% 44   30.26 30.26      
Dec 06 00:53 SSE 11 10 Cloudy OVC065 48 35     61% 43   30.27 30.27      
Dec 05 23:53 SE 9 10 Cloudy OVC065 47 35     63% 43   30.28 30.28      
Dec 05 22:53 SSE 11 10 Clear CLR 48 35     61% 43   30.29 30.29      
Dec 05 21:53 SSE 7 10 Clear CLR 45 36     71% 41   30.3 30.31      
Dec 05 20:53 SSE 8 10 Clear CLR 47 36     65% 43   30.3 30.31      
Dec 05 19:53 SSE 6 10 Clear CLR 47 37     68% 44   30.31 30.31      
Dec 05 18:53 SE 5 10 Clear CLR 48 37     66% 46   30.31 30.31      
Dec 05 17:53 ESE 5 10 Clear CLR 49 35     59% 47   30.31 30.31      
Dec 05 16:53 ESE 5 10 Clear CLR 52 35     52%     30.32 30.32      
Dec 05 15:53 SSE 6 10 Clear CLR 54 34     47%     30.33 30.33      
Dec 05 14:53 6 10 Clear CLR 54 34     47%     30.35 30.35      
Dec 05 13:53 SE 5 10 Clear CLR 53 32     45%     30.37 30.37      
Dec 05 12:53 E 6 10 Clear CLR 51 33     50%     30.4 30.4      
Dec 05 11:53 Calm 10 Clear CLR 49 32     52%     30.45 30.45      
Dec 05 10:53 ENE 3 10 Clear CLR 47 32     56% 46   30.47 30.47      
Dec 05 09:53 6 10 Clear CLR 43 31     62% 39   30.49 30.49      
Dec 05 08:53 ENE 6 9 Clear CLR 39 32     76% 35   30.48 30.48      
Dec 05 07:53 Calm 8 Clear CLR 35 30     82%     30.46 30.47      
Dec 05 06:53 NNE 5 9 Clear CLR 34 29     82% 30   30.45 30.46      
Dec 05 05:53 NNE 6 10 Clear CLR 35 30     82% 30   30.44 30.45      
Dec 05 04:53 N 6 10 Clear CLR 35 31     85% 30   30.43 30.44      
Dec 05 03:53 N 6 10 Clear CLR 37 32     82% 32   30.43 30.44      
Dec 05 02:53 N 3 10 Clear CLR 38 32     79% 36   30.42 30.42      
Dec 05 01:53 Calm 10 Clear CLR 40 32     73%     30.41 30.42      
Dec 05 00:53 N 3 4 Haze BKN070 42 33     70% 40   30.41 30.41      
Dec 04 23:53 Calm 10 Cloudy OVC075 43 32     65%     30.41 30.41      
Dec 04 22:53 N 3 10 Cloudy OVC080 44 31     60% 43   30.42 30.42      
Dec 04 21:53 N 6 10 Cloudy OVC070 44 30     58% 41   30.41 30.41      
Dec 04 20:53 N 7 10 Cloudy BKN070 OVC085 44 30     58% 40   30.4 30.4      
Dec 04 19:53 N 8 10 Cloudy OVC080 44 30     58% 40   30.39 30.39      
Dec 04 18:53 N 6 10 Cloudy OVC085 45 30     56% 42   30.36 30.37      
Dec 04 17:53 N 6 10 Mostly Clear FEW085 43 29     57% 39   30.35 30.35      
Dec 04 16:53 NNE 9 10 Partly Cloudy SCT085 47 28     48% 43   30.32 30.33      
Dec 04 15:53 N 7 10 Clear CLR 49 29     46% 46   30.33 30.33      
Dec 04 14:53 NNE 8 10 Clear CLR 49 29     46% 45   30.33 30.33      
Dec 04 13:53 N 9 10 Clear CLR 48 29     47% 44   30.33 30.33      
Dec 04 12:53 N 9 10 Clear CLR 46 30     53% 41   30.35 30.36      
Dec 04 11:53 6 10 Clear CLR 44 30     58% 41   30.4 30.4      
Dec 04 10:53 NNE 9 10 Clear CLR 42 30     62% 37   30.42 30.42      
Dec 04 09:53 N 7 10 Clear CLR 39 30     70% 34   30.43 30.44      
Dec 04 08:53 N 8 10 Clear CLR 37 30     76% 31   30.42 30.42      
Dec 04 07:53 N 7 10 Clear CLR 32 28     85% 26   30.39 30.4      
Dec 04 06:53 N 5 10 Clear CLR 31 28     89% 26   30.38 30.39      
Dec 04 05:53 N 7 10 Clear CLR 32 29     88% 26   30.37 30.37      
Dec 04 04:53 N 8 10 Clear CLR 33 29     85% 26   30.35 30.35      
Dec 04 03:53 N 8 10 Clear CLR 34 30     85% 27   30.35 30.36      
Dec 04 02:53 N 7 10 Clear CLR 35 30     82% 29   30.33 30.33      
Dec 04 01:53 N 8 10 Clear CLR 36 30     79% 30   30.34 30.34      
Dec 04 00:53 N 8 10 Clear CLR 37 31     78% 31   30.34 30.34      
Dec 03 23:53 N 7 10 Clear CLR 38 31     76% 33   30.33 30.33      
Dec 03 22:53 N 7 10 Clear CLR 39 32     76% 34   30.32 30.32      
Dec 03 21:53 N 5 10 Clear CLR 40 32     73% 37   30.3 30.3      
Dec 03 20:53 N 6 10 Clear CLR 43 32     65% 39   30.27 30.28      
Dec 03 19:53 NNE 5 10 Clear CLR 45 32     60% 43   30.25 30.26      
Dec 03 18:53 NNE 7 10 Clear CLR 47 32     56% 44   30.24 30.24      
Dec 03 17:53 N 8 10 Clear CLR 49 33     54% 45   30.23 30.23      
Dec 03 16:53 NNE 8 10 Clear CLR 52 33     48%     30.21 30.21      
Dec 03 15:53 N 10 10 Clear CLR 55 32     41%     30.19 30.19      
Dec 03 14:53 N 11 10 Clear CLR 56 33     42%     30.18 30.18      
Dec 03 13:53 N 14 10 Clear CLR 55 31     40%     30.19 30.19      
Dec 03 12:53 N 10 10 Partly Cloudy SCT100 55 34     45%     30.2 30.2      
Dec 03 11:53 N 14 10 Clear CLR 55 34     45%     30.22 30.22      
Dec 03 10:53 NNE 7 10 Mostly Clear FEW100 52 35     52%     30.22 30.22      
Dec 03 09:53 N 9 10 Mostly Clear FEW110 50 35     56%     30.22 30.22      
Dec 03 08:53 NNE 10 10 Cloudy OVC110 47 36     65% 42   30.2 30.19      
Dec 03 07:53 N 10 10 Cloudy BKN100 OVC120 46 36     68% 41   30.16 30.16      
Dec 03 06:53 N 9 10 Cloudy OVC095 46 37     71% 41   30.11 30.11      
Dec 03 05:53 NNE 8 10 Cloudy OVC095 47 37     68% 43   30.08 30.08      
Dec 03 03:53 NNE 5 10 Clear CLR 45 37     74% 43   30.04 30.03      
Dec 03 02:53 N 6 10 Clear CLR 44 37     76% 41   30.03 30.02      
Dec 03 01:53 NNE 6 10 Clear CLR 45 37     74% 42   30.01 30.01      
Dec 03 00:53 NNE 6 10 Clear CLR 46 37     71% 43   30.01 30.01      
Dec 02 23:53 N 5 10 Mostly Clear FEW085 46 37     71% 44   30.01 30.01      
Dec 02 22:53 N 6 10 Clear CLR 46 38     73% 43   30.01 30.01      
Dec 02 21:53 Calm 10 Clear CLR 49 38     66%     29.98 29.98      
Dec 02 20:53 N 5 10 Clear CLR 49 38     66% 47   29.96 29.96      
Dec 02 19:53 NNE 5 10 Partly Cloudy SCT090 52 37     57%     29.93 29.93      
Dec 02 18:53 NNE 3 10 Cloudy OVC090 54 38     55%     29.92 29.92      
Dec 02 17:53 NNE 3 10 Mostly Cloudy BKN100 BKN110 55 37     51%     29.89 29.88      
Dec 02 16:53 NNE 6 10 Cloudy BKN100 OVC110 58 37     46%     29.88 29.87      
Dec 02 15:53 NNE 7 10 Cloudy OVC110 59 37     44%     29.87 29.86      
Dec 02 14:53 N 5 10 Cloudy OVC100 60 36     40%     29.86 29.86      
Dec 02 13:53 NNW 9 10 Clear CLR 62 37     39%     29.86 29.85      
Dec 02 12:53 6 10 Clear CLR 59 36     42%     29.88 29.87      
Dec 02 11:53 N 8 10 Clear CLR 58 35     42%     29.92 29.91      
Dec 02 10:53 NNE 8 10 Clear CLR 56 35     45%     29.92 29.92      
Dec 02 09:53 N 11 10 Clear CLR 54 35     49%     29.92 29.92      
Dec 02 08:53 N 9 10 Clear CLR 52 36     54%     29.89 29.89      
Dec 02 07:53 N 9 10 Clear CLR 48 37     66% 44   29.85 29.84      
Dec 02 06:53 N 5 10 Clear CLR 48 35     61% 46   29.82 29.82      
Dec 02 04:53 W 7 10 Clear CLR 49 35     59% 46   29.75 29.74      
Dec 02 03:53 WSW 9 10 Clear CLR 52 35     52%     29.73 29.72      
Dec 02 01:53 SSW 9 10 Clear   54 35     49%     29.7 29.7      
Dec 01 23:53 WSW 9 10 Clear CLR 55 35     47%     29.69 29.68      
Dec 01 22:53 SW 9 10 Clear CLR 56 34     43%     29.68 29.67      
Dec 01 21:53 SW 8 10 Clear CLR 56 35     45%     29.67 29.66      
Dec 01 20:53 SW 8 10 Clear CLR 57 35     44%     29.66 29.65      
Dec 01 19:53 SW 8 10 Clear CLR 59 35     41%     29.65 29.64      
Dec 01 18:53 SW 7 10 Clear CLR 61 35     38%     29.62 29.61      
Dec 01 17:53 WSW 6 10 Clear CLR 65 33     30%     29.6 29.59      
Dec 01 16:53 WSW 8 10 Clear CLR 70 34     26%     29.59 29.58      
Dec 01 15:53 W 17 10 Clear CLR 73 33     23%   71 29.58 29.57      
Dec 01 14:53 W 16 10 Clear CLR 73 35     25%   71 29.59 29.57      
Dec 01 13:53 W 20 10 Clear and Windy CLR 73 35     25%   71 29.59 29.58      
Dec 01 12:53 WSW 14 10 Clear CLR 72 38     29%   70 29.6 29.58      
Dec 01 11:53 W 14 10 Clear CLR 70 38     31%     29.63 29.62      
Dec 01 10:53 WSW 15 10 Clear CLR 68 39     35%     29.65 29.64      
Dec 01 09:53 WSW 14 10 Clear CLR 66 39     37%     29.66 29.65      
Dec 01 08:53 WSW 15 10 Clear CLR 62 40     44%     29.65 29.64      
Dec 01 07:53 SW 10 10 Clear CLR 57 41     55%     29.64 29.63      
Dec 01 06:53 SW 9 10 Partly Cloudy SCT095 57 42     57%     29.63 29.62      
Dec 01 05:53 SW 9 10 Clear CLR 58 43     57%     29.61 29.6     0
Dec 01 04:53 SSW 8 10 Mostly Clear FEW100 60 43     53%     29.6 29.59      
Dec 01 03:53 SSW 7 10 Mostly Cloudy BKN090 61 49     64%     29.6 29.59      
Dec 01 02:53 SSW 8 10 Mostly Cloudy BKN100 63 55     75%     29.61 29.59   0  
Dec 01 01:53 WSW 9 10 Clear CLR 66 62     87%     29.6 29.59      
Dec 01 00:53 SW 13 10 Cloudy OVC050 68 65     90%     29.6 29.59 0    
Dec 01 00:03 SW 17 6 Light Rain SCT016 BKN050 OVC090 69 64     84%     29.61   0    
Nov 30 23:53 SW 17 10 Light Rain SCT016 BKN030 BKN055 71 66     84%   72 29.6 29.59 0   0
Nov 30 23:45 SSW 18 10 Light Rain SCT018 SCT041 BKN055 71 66     84%   72 29.59   0    
Nov 30 22:53 S 17 10 Mostly Clear FEW019 71 66     84%   72 29.58 29.56      
Nov 30 21:53 S 16 10 Clear CLR 71 66     84%   72 29.59 29.58      
Nov 30 20:53 S 14 10 Mostly Cloudy FEW040 SCT050 BKN060 71 65     81%   72 29.61 29.59      
Nov 30 20:26 S 11 10 Cloudy SCT026 OVC045 72 65     79%   73 29.62        
Nov 30 19:53 S 9 10 Cloudy BKN029 OVC035 71 65     81%   72 29.6 29.58      
Nov 30 18:53 S 11 10 Mostly Cloudy SCT033 BKN044 71 64     79%   72 29.6 29.58      
Nov 30 17:53 SSE 8 10 Mostly Cloudy BKN035 72 64     76%   72 29.6 29.59      
Nov 30 16:53 S 13 10 Cloudy BKN040 BKN047 OVC060 74 65     74%   74 29.61 29.6      
Nov 30 15:53 S 7 10 Cloudy SCT029 BKN036 OVC055 72 66     82%   73 29.63 29.62      
Nov 30 15:19 S 8 10 Cloudy FEW028 BKN032 OVC043 72 65     79%   73 29.64        
Nov 30 14:53 S 7 10 Cloudy BKN029 OVC036 72 65     79%   73 29.66 29.64      
Nov 30 13:53 S 8 10 Cloudy OVC021 71 65     81%   72 29.67 29.66      
Nov 30 12:53 S 10 10 Cloudy BKN021 BKN028 OVC033 70 65     84%     29.7 29.68      
Nov 30 11:53 S 13 10 Cloudy BKN021 BKN028 OVC033 71 65     81%   72 29.75 29.74      
Nov 30 10:53 S 10 10 Cloudy BKN021 OVC028 70 65     84%     29.78 29.77      
Nov 30 09:53 S 11 10 Cloudy FEW019 OVC025 69 65     87%     29.81 29.8      
Nov 30 08:53 S 11 10 Cloudy FEW018 OVC026 69 65     87%     29.81 29.8      
Nov 30 07:53 SSE 9 10 Cloudy OVC023 67 65     93%     29.81 29.8      
Nov 30 07:14 S 7 10 Cloudy OVC029 66 64     93%     29.81        
Nov 30 06:53 S 8 10 Cloudy FEW012 OVC031 66 64     93%     29.81 29.8      
Nov 30 06:44 S 7 10 Cloudy SCT012 OVC031 66 64     93%     29.81        
Nov 30 05:53 S 9 10 Cloudy BKN024 OVC028 67 64     90%     29.81 29.8      
Nov 30 04:53 S 10 10 Cloudy OVC021 68 64     87%     29.81 29.8      
Nov 30 03:53 S 10 10 Cloudy BKN020 OVC025 68 64     87%     29.83 29.81      
Nov 30 02:53 SSW 10 10 Cloudy OVC021 68 64     87%     29.84 29.82      
Nov 30 02:12 S 11 10 Cloudy BKN016 OVC023 67 64     90%     29.84        
Nov 30 01:53 S 11 10 Cloudy BKN014 OVC024 67 64     90%     29.84 29.82      
Nov 30 01:35 S 11 10 Cloudy OVC014 68 64     87%     29.84        
Nov 30 00:53 S 13 10 Cloudy OVC015 68 64     87%     29.84 29.83      
Nov 29 23:53 S 11 10 Clear   69 65     87%     29.85 29.83      
Nov 29 22:53 S 14 10 Cloudy OVC021 69 65     87%     29.86 29.84      
Nov 29 21:53 S 13 10 Mostly Cloudy BKN017 68 65     90%     29.85 29.84      
Nov 29 21:44 S 13 10 Mostly Cloudy BKN018 68 65     90%     29.85        
Nov 29 21:11 S 11 10 Partly Cloudy SCT022 66 63     90%     29.84        
Nov 29 20:53 S 10 10 Mostly Cloudy BKN024 66 63     90%     29.84 29.83      
Nov 29 19:53 S 8 10 Partly Cloudy SCT028 65 62     90%     29.83 29.83      
Nov 29 19:49 S 8 10 Partly Cloudy SCT028 64 63     94%     29.83        
Nov 29 19:36 S 9 10 Mostly Cloudy BKN028 66 62     87%     29.83        
Nov 29 18:53 S 8 10 Clear CLR 67 62     84%     29.83 29.82      
Nov 29 17:53 S 8 10 Clear CLR 69 62     78%     29.81 29.8      
Nov 29 16:53 S 16 10 Partly Cloudy SCT034 72 63     73%   72 29.8 29.79      
Nov 29 15:53 SSW 18 10 Clear CLR 77 62     60%   77 29.78 29.77      
Nov 29 14:53 SSW 17 10 Clear CLR 77 62     60%   77 29.77 29.76      
Nov 29 13:53 SSW 23 10 Clear and Windy CLR 77 62     60%   77 29.79 29.78      
Nov 29 12:53 SSW 22 10 Clear and Windy CLR 74 61     64%   74 29.82 29.81      
Nov 29 11:53 SSW 22 10 Clear and Windy CLR 72 60     66%   72 29.85 29.84      
Nov 29 10:53 SW 21 10 Clear and Windy CLR 69 60     73%     29.88 29.87      
Nov 29 09:53   10 Mostly Clear FEW015 66 59     78%     29.89 29.88      
Nov 29 08:53 SSW 18 10 Clear CLR 63 59     87%     29.88 29.87      
Nov 29 08:02 SSW 16 10 Mostly Clear FEW009 60 58     93%     29.87        
Nov 29 07:53 SSW 17 10 Mostly Clear FEW010 59 58     96%     29.87 29.86      
Nov 29 06:53 S 11 10 Clear CLR 58 56     93%     29.86 29.85      
Nov 29 05:53 S 10 10 Clear CLR 58 56     93%     29.84 29.83      
Nov 29 04:53 S 9 10 Clear CLR 58 56     93%     29.85 29.84      
Nov 29 03:53 S 9 10 Clear CLR 57 55     93%     29.85 29.84      
Nov 29 02:53 S 8 10 Clear CLR 54 53     97%     29.86 29.85      
Nov 29 01:53 S 10 10 Clear CLR 54 52     93%     29.87 29.86      
Nov 29 00:53 S 9 10 Clear CLR 55 52     89%     29.89 29.88      
Nov 28 23:53 S 9 10 Clear CLR 57 52     83%     29.9 29.89      
Nov 28 22:53 S 10 10 Clear CLR 58 52     81%     29.89 29.89      
Nov 28 21:53 S 10 10 Clear CLR 59 51     75%     29.89 29.88      
Nov 28 20:53 S 10 10 Clear CLR 59 50     72%     29.88 29.87      
Nov 28 19:53 S 9 10 Clear CLR 60 49     67%     29.87 29.87      
Nov 28 18:53 S 11 10 Clear CLR 62 48     60%     29.85 29.85      
Nov 28 17:53 S 16 10 Clear CLR 64 48     56%     29.84 29.84      
Nov 28 16:53 S 14 10 Clear CLR 67 47     49%     29.84 29.83      
Nov 28 15:53 SSW 17 10 Clear CLR 69 44     40%     29.85 29.85      
Nov 28 14:53 SSW 21 10 Clear and Windy CLR 70 43     38%     29.86 29.85      
Nov 28 13:53 S 18 10 Clear CLR 69 43     39%     29.88 29.87      
Nov 28 12:53 S 18 10 Clear CLR 68 43     40%     29.91 29.91      
Nov 28 11:53 SSW 20 10 Clear and Windy CLR 66 41     40%     29.94 29.93      
Nov 28 10:53 SSW 20 10 Clear and Windy CLR 64 45     50%     29.99 29.98      
Nov 28 09:53 SSW 16 10 Clear CLR 59 46     62%     30 30      
Nov 28 08:53 SSW 14 10 Clear CLR 51 43     74%     30.02 30.01      
Nov 28 07:53 S 8 10 Clear CLR 45 39     80% 41   30.02 30.02      
Nov 28 06:53 S 9 10 Clear CLR 44 37     76% 39   30.02 30.01      
Nov 28 04:53 S 7 10 Clear CLR 43 34     70% 39   30.01 30.01      
Nov 28 03:53 S 10 10 Clear CLR 47 34     60% 42   30.02 30.02      
Nov 28 02:53 S 9 10 Clear CLR 46 32     58% 41   30.04 30.03      
Nov 28 01:53 S 10 10 Clear CLR 45 31     58% 40   30.05 30.04      
Nov 28 00:53 S 10 10 Clear CLR 45 31     58% 40   30.05 30.05      
Nov 27 23:53 S 8 10 Clear CLR 45 31     58% 41   30.07 30.06      
Nov 27 22:53 S 9 10 Clear CLR 47 31     53% 43   30.07 30.07      
Nov 27 21:53 S 9 10 Clear CLR 48 31     51% 44   30.08 30.08      
Nov 27 20:53 S 8 10 Clear CLR 49 31     50% 45   30.08 30.09      
Nov 27 19:53 S 8 10 Clear CLR 49 31     50% 45   30.08 30.09      
Nov 27 18:53 S 8 10 Clear CLR 51 30     44%     30.08 30.08      
Nov 27 16:53 SSW 8 10 Clear CLR 58 29     33%     30.09 30.09      
Nov 27 15:53 SSW 14 10 Clear   60 30     32%     30.09 30.09      
Nov 27 13:53 SSW 14 10 Clear   60 30     32%     30.13 30.13      
Nov 27 12:53 SW 14 10 Clear CLR 60 29     31%     30.17 30.16      
Nov 27 11:53 SSW 15 10 Clear CLR 58 29     33%     30.21 30.22      
Nov 27 10:53 SSW 14 10 Clear CLR 55 31     40%     30.25 30.25      
Nov 27 09:53 SW 15 10 Clear CLR 49 32     52% 43   30.26 30.26      
Nov 27 08:53 SW 10 10 Clear CLR 42 32     67% 36   30.25 30.25      
Nov 27 07:53 SSW 7 10 Clear CLR 34 29     82% 28   30.25 30.26      
Nov 27 06:53 SSW 6 10 Clear CLR 32 27     81% 26   30.25 30.25      
Nov 27 05:53 SSW 8 10 Clear CLR 32 27     81% 25   30.24 30.25      
Nov 27 04:53 SSW 6 10 Clear CLR 32 27     81% 26   30.25 30.25      
Nov 27 03:53 SSW 7 10 Clear CLR 33 28     82% 27   30.26 30.26      
Nov 27 01:53 SW 7 10 Clear CLR 34 28     79% 28   30.28 30.29      
Nov 27 00:53 WSW 6 10 Clear CLR 34 28     79% 29   30.29 30.29      
Nov 26 23:53 SW 7 10 Clear CLR 34 28     79% 28   30.29 30.29      
Nov 26 22:53 SW 5 10 Clear CLR 36 28     73% 32   30.29 30.29      
Nov 26 21:53 WSW 5 10 Clear CLR 37 28     70% 33   30.3 30.3      
Nov 26 20:53 W 3 10 Clear CLR 39 28     64% 37   30.29 30.29      
Nov 26 19:53 Calm 10 Clear CLR 39 28     64%     30.3 30.3      
Nov 26 18:53 Calm 10 Clear CLR 41 29     62%     30.29 30.3      
Nov 26 17:53 N 5 10 Clear CLR 45 27     49% 43   30.28 30.29      
Nov 26 16:53 N 7 10 Clear CLR 49 26     41% 46   30.29 30.29      
Nov 26 15:53 NNW 11 10 Clear CLR 51 26     38%     30.29 30.29      
Nov 26 14:53 N 10 10 Clear CLR 51 25     36%     30.29 30.29      
Nov 26 13:53 NW 10 10 Clear CLR 50 25     37%     30.29 30.29      
Nov 26 12:53 NNW 10 10 Clear CLR 49 26     41% 45   30.32 30.32      
Nov 26 11:53 NNW 14 10 Clear CLR 45 27     49% 39   30.35 30.36      
Nov 26 10:53 NW 13 10 Clear CLR 42 27     55% 35   30.38 30.38      
Nov 26 09:53 NNW 15 10 Clear CLR 39 27     62% 31   30.37 30.37      
Nov 26 08:53 NNW 13 10 Clear CLR 36 27     70% 27   30.37 30.37      
Nov 26 07:53 WNW 8 10 Clear CLR 33 27     78% 26   30.35 30.36      
Nov 26 06:53 WNW 7 10 Clear CLR 32 27     81% 26   30.33 30.34      
Nov 26 05:53 NW 8 10 Clear CLR 35 27     72% 29   30.32 30.32      
Nov 26 04:53 NNW 9 10 Clear CLR 37 27     67% 30   30.28 30.29      
Nov 26 03:53 NNW 8 10 Clear CLR 38 28     67% 32   30.26 30.26      
Nov 26 02:53 NNW 8 10 Clear CLR 38 28     67% 32   30.25 30.25      
Nov 26 01:53 NNW 11 10 Clear CLR 40 28     62% 33   30.25 30.25      
Nov 26 00:53 NNW 14 10 Clear CLR 40 29     65% 32   30.23 30.23      
Nov 25 23:53 NNW 9 10 Clear CLR 40 29     65% 34   30.22 30.22      
Nov 25 22:53 NNW 16 10 Clear CLR 42 29     59% 34   30.21 30.21      
Nov 25 21:53 NNW 11 10 Clear CLR 42 30     62% 36   30.19 30.19      
Nov 25 20:53 N 11 10 Clear CLR 44 30     58% 38   30.18 30.17      
Nov 25 19:53 NNW 14 10 Clear CLR 46 30     53% 40   30.15 30.14      
Nov 25 18:53 NNW 20 10 Clear and Windy CLR 48 30     50% 41   30.12 30.11      
Nov 25 17:53 NW 18 10 Clear   50 31     48%     30.09 30.08      
Nov 25 16:53 NNW 22 10 Clear and Windy CLR 53 31     43%     30.03 30.03      
Nov 25 15:53 NNW 17 10 Clear CLR 58 35     42%     30 29.99      
Nov 25 14:53 NNW 22 10 Clear and Windy CLR 59 34     39%     29.97 29.97      
Nov 25 13:53 NW 21 10 Clear and Windy CLR 60 35     39%     29.96 29.95      
Nov 25 11:53 NW 23 10 Clear and Windy CLR 61 35     38%     29.92 29.91      
May 15 13:53 SSE 8 10 Clear CLR 87 64     46%   88 29.98 29.96      
May 14 11:08 S 11 10 Mostly Cloudy BKN032 80 69     69%   83 30.03        
May 13 22:53 SSE 9 10 Clear CLR 79 69     72%   80   29.95      
May 13 12:53 SSE 14 10 Cloudy FEW038 OVC048 83 68     61%   86 30.05 30.03      
May 12 07:53 S 11 7 Cloudy FEW014 BKN025 OVC043 73 69     87%   74 30 29.98      
May 12 02:53 S 13 9 Mostly Clear FEW016 72 67     84%   73 29.95 29.93      
May 11 22:53 SSE 11 10 Clear CLR 75 63     66%   75 29.94 29.92      
May 11 20:53 SSE 9 10 Clear CLR 76 63     64%   76 29.89 29.87      
May 11 11:53 S 16 10 Partly Cloudy SCT040 81 65     58%   83   29.98      
May 11 07:53 S 10 8 Cloudy FEW011 OVC024 70 67     90%     29.99 29.98      
Notice The following observation data may not be complete
Jun 11 16:53     Clear            %     29.91        
Notice The following observation data may not be complete
Jun 11 03:53     Clear            %     29.93        
Notice The following observation data may not be complete
Jun 10 21:53     Clear            %     29.89        
Notice The following observation data may not be complete
Jun 09 16:53     Clear            %     29.9        
Jun 06 02:53 NNW 6 10 Clear CLR 73 71     94%   74 29.82 29.8